Wind_Speed
3 4 3 5 7 8 7 6 6 6 6 7 6 5 4 4 2 3 3 5 1 3 3 4 4 8 10 11 12 9 4 4 9 8 8 8 7 7 7 8 8 9 11 11 15 17 18 20 21 22 24 25 27 30 31 32 33 34 34 34 35 35 34 33 32 32 32 32 32 32 33 33 32 32 32 33 34 34 33 31 33 35 34 33 31 31
4 4 7 6 6 7 6 6 7 6 6 6 6 5 2 2 2 2 1 4 3 1 3 2 4 9 10 11 12 8 6 7 9 8 9 9 8 7 7 10 10 8 9 9 12 16 16 18 19 20 21 22 25 28 31 33 34 34 33 34 35 34 34 35 35 34 34 35 34 34 35 35 33 33 32 33 33 32 33 32 34 36 36 36 33 32
2 4 7 5 5 8 7 5 8 8 6 5 4 5 3 2 2 3 2 4 5 0 3 4 5 9 11 10 11 9 7 8 8 8 8 8 9 9 8 9 9 9 10 9 10 12 14 16 17 18 20 22 25 27 28 30 32 32 32 33 34 34 34 35 35 35 35 36 35 34 33 32 32 33 33 33 33 32 31 32 32 33 33 35 35 33
4 5 5 6 8 10 6 4 9 8 5 5 4 5 3 2 1 1 2 4 4 2 1 3 4 7 8 7 9 7 5 7 7 7 8 8 9 11 9 7 7 9 11 9 9 9 11 13 14 16 19 20 22 24 25 27 29 30 32 34 34 34 34 34 34 36 36 34 32 32 31 30 29 29 29 30 31 32 32 32 32 32 33 33 34 34
4 4 2 7 6 8 7 3 6 7 3 2 3 5 4 3 4 3 1 2 3 3 2 3 4 6 5 5 7 5 4 6 6 6 8 7 7 9 8 8 8 9 9 9 10 9 10 12 14 14 15 16 18 22 24 25 27 28 31 31 31 32 32 32 33 33 34 32 30 28 28 26 25 26 26 26 28 30 31 33 33 34 33 31 31 32
3 2 4 9 4 6 8 3 4 7 3 1 3 6 6 7 6 2 2 4 4 4 4 4 3 5 6 5 7 5 7 8 6 6 8 7 6 6 7 8 7 7 7 7 9 9 10 14 16 15 13 13 16 18 20 21 23 25 26 27 27 29 30 30 30 30 31 32 30 28 27 26 25 25 26 28 30 31 32 34 35 35 34 34 32 31
1 2 4 7 6 6 7 4 5 6 6 2 4 5 7 8 8 6 5 4 2 1 2 3 3 4 7 6 7 5 8 11 8 6 7 7 7 6 5 7 6 6 6 5 7 7 9 12 13 12 9 9 12 13 14 16 18 20 22 23 24 25 27 27 27 27 29 30 31 30 30 30 29 29 30 32 33 33 33 34 34 34 35 35 36 35
2 3 4 5 6 6 6 4 5 7 8 3 3 6 8 8 8 7 6 4 2 2 3 4 4 1 5 6 7 6 7 10 9 8 8 7 7 7 6 6 6 6 5 5 6 6 7 8 8 8 6 4 6 6 7 10 12 14 17 19 20 21 22 24 24 25 26 28 30 31 32 32 32 32 32 32 31 32 32 32 32 32 33 34 35 36
2 5 6 6 5 4 4 4 6 8 6 3 2 7 7 7 7 5 6 4 0 0 3 5 2 1 5 7 6 6 5 9 8 7 8 7 7 7 7 7 7 6 5 4 4 5 7 8 8 7 6 5 4 3 2 4 6 8 11 14 16 17 18 20 21 23 24 26 28 29 31 32 33 33 33 30 28 28 28 29 31 30 31 32 33 34
1 4 6 6 5 4 3 0 2 5 4 4 6 8 6 6 6 5 5 4 2 2 4 5 2 1 5 7 4 3 2 7 7 6 6 6 6 6 6 7 7 6 6 4 4 6 7 8 10 10 8 7 6 5 3 1 1 3 6 10 12 14 15 16 18 20 22 23 25 28 30 31 32 32 31 30 28 26 25 26 28 28 29 30 31 32
2 1 1 3 3 5 5 4 3 3 5 7 6 7 7 6 5 4 3 3 4 2 6 5 3 1 3 6 4 2 3 5 3 3 5 6 6 6 5 6 6 6 6 5 5 6 6 7 8 9 9 8 8 7 5 4 2 0 2 5 8 10 11 13 15 17 19 21 24 26 28 31 32 31 30 29 28 27 26 27 28 28 28 29 29 30
4 2 0 0 1 4 6 6 5 4 5 6 5 6 5 4 4 4 5 3 2 4 6 4 3 1 2 5 3 3 6 5 3 2 4 6 7 7 6 6 6 5 5 5 5 5 6 7 8 9 9 9 9 8 7 6 4 3 1 1 3 6 8 10 12 14 17 19 22 25 27 30 31 30 29 29 29 29 28 29 29 29 28 28 29 29
3 1 1 1 1 3 6 6 5 4 4 5 5 6 5 2 3 2 3 1 2 5 4 3 2 2 5 7 6 8 9 6 6 6 5 6 7 8 7 7 6 5 5 5 5 5 5 6 8 9 9 9 9 8 8 6 5 3 2 1 2 4 5 8 11 13 15 18 20 23 26 28 29 30 30 30 31 31 30 31 31 30 30 30 30 30
1 4 2 1 1 2 4 6 4 1 1 4 6 5 4 3 2 2 4 2 3 4 3 4 2 1 4 6 8 11 10 6 6 6 6 6 6 7 8 7 7 6 5 4 5 5 5 7 9 11 12 13 12 11 9 7 6 5 3 2 3 3 5 7 10 12 14 16 18 20 23 25 27 28 29 30 31 32 32 31 31 31 31 31 31 31
3 4 3 3 2 2 3 3 6 6 4 3 4 5 5 5 4 4 4 3 4 3 3 4 2 3 3 3 6 8 7 5 5 6 5 6 6 6 7 6 6 5 5 4 5 5 6 9 12 15 17 18 18 17 14 12 10 8 7 6 6 6 5 7 9 11 13 15 16 18 21 22 24 26 27 29 31 31 31 31 31 31 31 31 31 31
4 4 4 2 2 3 3 2 3 7 3 1 2 5 3 4 5 3 3 5 3 0 2 2 3 4 3 5 6 3 5 5 4 4 3 4 6 4 4 4 4 5 5 5 6 7 8 11 15 17 20 20 19 19 17 16 14 13 12 11 11 11 9 9 10 11 13 14 15 17 19 20 22 23 25 27 29 29 29 29 30 31 31 31 30 30
3 2 4 3 2 2 2 2 2 3 3 2 2 3 4 4 8 6 1 1 3 1 3 1 3 5 4 6 7 4 4 6 6 5 3 3 5 4 3 3 4 5 6 6 5 5 7 11 15 17 19 19 18 17 16 15 14 13 13 13 13 13 13 12 12 13 14 15 16 17 19 20 21 23 24 26 26 26 27 28 29 29 29 30 29 29
5 1 3 2 2 2 1 2 4 3 3 5 3 5 4 3 5 5 2 3 4 2 4 1 3 5 1 3 6 6 2 5 5 5 5 3 2 4 3 2 2 3 4 5 5 5 6 10 14 16 17 16 15 15 14 13 13 12 12 13 14 15 15 15 14 15 15 16 17 18 19 20 21 22 23 24 24 24 25 27 27 28 28 29 28 28
5 3 3 2 2 3 3 4 3 4 4 4 4 3 4 3 2 2 2 1 1 2 4 4 3 3 3 4 5 3 5 6 6 6 4 1 3 3 2 2 1 1 3 5 5 5 7 10 13 15 16 15 15 14 14 13 12 11 12 13 14 15 17 17 18 18 17 17 18 18 19 20 21 22 22 22 23 23 25 26 26 26 27 27 27 28
4 4 2 2 1 2 3 2 4 1 4 4 3 2 3 3 4 2 3 4 3 3 2 4 3 3 6 6 5 7 7 6 6 5 3 4 5 5 6 5 3 2 4 5 6 5 6 9 12 13 15 15 16 16 14 13 12 12 13 15 16 17 18 20 21 20 20 19 18 18 18 19 20 21 22 22 22 23 25 25 25 25 26 26 27 27
2 3 3 2 3 1 1 3 6 6 3 3 3 3 2 2 2 1 1 2 4 4 3 2 3 5 6 4 6 8 7 6 7 7 6 6 7 7 7 6 4 2 3 4 5 4 6 9 13 15 16 16 17 18 16 14 13 13 15 16 17 17 19 21 21 21 21 21 20 20 18 17 18 19 20 22 22 24 25 25 26 25 25 25 26 26
2 3 4 2 0 3 4 3 3 5 6 6 5 6 6 4 4 3 2 1 3 3 4 3 3 7 6 3 5 6 6 6 6 7 8 6 7 8 6 5 4 1 2 4 4 5 6 10 15 17 18 18 19 20 18 16 15 15 15 16 15 16 18 19 20 20 20 21 21 21 20 18 18 17 19 20 22 24 25 25 26 26 26 27 27 27
3 4 4 2 3 5 3 2 1 2 3 4 3 4 6 4 5 6 5 4 2 1 2 3 1 7 6 4 5 6 5 6 5 6 8 7 7 6 3 3 2 1 3 5 5 5 8 11 14 17 18 19 20 20 19 18 17 16 16 16 16 16 17 17 17 17 17 18 19 19 20 20 20 19 19 20 22 23 24 25 25 25 26 27 28 28
2 4 4 0 3 3 4 4 3 2 2 2 2 3 5 4 3 5 5 4 4 3 3 3 2 6 6 3 4 5 4 3 5 5 6 7 6 3 1 4 4 3 5 5 4 6 9 11 12 15 17 18 19 19 19 19 18 18 18 18 18 18 17 17 17 17 17 17 17 18 19 20 21 21 22 22 23 23 24 25 25 25 26 27 27 28
3 3 5 3 2 3 4 3 3 2 1 4 3 3 4 4 6 4 2 4 2 5 6 5 4 6 5 4 4 3 2 0 4 5 3 5 5 1 3 5 5 4 5 5 5 7 8 8 8 9 11 13 15 17 18 19 19 19 20 19 19 20 20 20 19 19 20 19 19 20 20 21 21 22 22 23 23 23 23 24 24 25 25 26 27 28
5 4 5 6 6 6 6 4 4 4 3 2 2 3 4 6 8 5 3 4 3 5 6 6 5 5 5 5 5 3 1 4 4 4 3 3 4 3 2 2 4 5 5 5 6 6 4 2 3 6 9 11 12 14 16 17 18 20 21 21 21 22 21 21 21 21 21 22 22 22 22 22 22 22 23 23 23 23 23 23 24 24 25 25 26 27
3 2 5 8 10 11 8 5 3 6 6 4 4 6 6 7 9 6 4 4 6 3 4 7 5 4 6 5 4 4 5 6 6 5 4 4 4 3 1 2 4 4 4 5 4 3 1 2 5 7 9 10 11 13 15 16 19 22 23 24 24 23 23 22 21 20 21 21 22 23 22 22 22 23 23 24 24 25 24 24 24 24 24 24 26 27
4 3 6 8 10 8 6 5 4 7 8 9 9 9 9 9 9 8 8 10 6 5 7 9 7 7 8 7 7 8 7 6 6 7 6 4 3 0 0 3 4 3 3 1 2 4 6 7 8 11 14 15 18 21 23 24 24 25 25 26 26 26 25 24 23 22 23 23 23 23 22 22 22 22 23 24 25 25 25 25 25 24 24 24 25 27
5 5 5 6 8 6 4 3 5 6 7 8 11 12 12 12 12 13 15 13 8 7 13 7 11 11 11 8 11 10 9 8 7 7 5 2 1 2 3 4 0 2 4 7 8 8 8 7 9 13 17 20 23 26 27 28 28 28 28 28 28 28 27 26 26 25 25 24 24 24 23 23 23 22 23 23 24 24 25 25 25 25 25 25 26 26
3 4 4 6 7 7 4 3 5 7 6 5 8 12 13 14 16 17 18 17 12 13 14 6 10 14 10 9 11 8 6 7 4 4 4 2 3 4 2 2 5 6 7 8 7 7 6 6 9 13 17 20 23 24 25 26 27 27 27 28 29 29 28 28 27 27 26 25 24 23 23 23 23 23 23 23 23 24 24 24 25 25 26 26 26 26
3 3 3 6 4 6 3 4 4 6 7 6 7 8 10 12 15 16 17 14 9 11 13 4 6 11 6 7 8 3 3 3 4 5 5 3 3 2 5 6 6 6 6 6 5 5 6 7 10 14 16 18 21 22 23 24 25 26 27 29 29 29 29 28 28 28 27 26 25 24 24 24 24 24 24 24 24 24 24 24 24 25 26 26 26 26
3 2 1 5 4 5 2 5 5 3 2 3 5 8 12 12 12 13 12 9 9 11 12 8 8 11 5 7 5 2 3 4 6 6 5 4 3 3 4 3 4 5 4 4 4 5 5 6 9 12 14 16 19 21 22 23 24 26 28 28 28 28 29 29 28 28 28 28 27 27 27 27 27 27 26 26 26 26 26 26 26 26 26 26 26 26
4 4 1 4 5 4 2 5 7 6 3 4 8 12 15 13 11 9 6 8 11 11 10 10 11 8 5 8 7 5 6 8 8 5 3 2 1 3 4 5 4 3 2 3 3 4 5 6 8 10 12 14 17 19 19 20 22 24 26 26 27 28 29 29 29 29 29 30 31 31 31 31 31 31 30 29 28 28 28 27 28 27 26 27 26 26
3 5 3 3 4 2 1 5 7 4 5 7 6 10 15 16 14 11 10 13 14 12 9 9 7 2 6 8 9 9 8 7 5 3 3 3 4 5 5 5 4 2 3 3 3 4 5 7 10 12 13 14 16 17 17 18 20 22 24 24 26 27 28 29 29 29 30 31 32 33 33 34 34 34 34 33 31 31 30 29 28 27 27 27 26 26
4 5 3 2 3 2 2 4 4 6 9 5 3 4 11 14 14 14 14 13 10 10 10 11 9 5 7 8 7 8 6 3 4 4 3 4 5 6 6 5 4 3 3 4 4 5 8 10 12 15 16 17 17 17 19 20 22 24 24 24 25 27 28 28 28 28 30 32 32 33 34 35 35 35 35 35 33 32 31 30 29 28 27 27 26 27
5 4 2 2 2 3 3 4 6 5 2 2 4 3 3 5 7 8 10 10 8 10 11 13 15 10 7 6 3 5 6 5 5 3 2 3 4 5 6 5 4 3 2 2 3 5 9 11 13 15 16 18 18 19 21 23 24 26 27 26 27 28 29 29 29 31 32 34 34 34 35 35 35 35 35 35 34 34 32 31 30 29 28 27 28 27
6 4 2 2 4 3 4 6 5 3 4 3 5 4 3 6 8 8 7 10 10 12 11 12 15 10 6 5 4 6 7 6 5 1 3 3 2 4 5 5 5 3 2 3 4 6 8 11 13 15 17 19 19 20 23 24 25 26 27 27 28 30 30 29 30 32 34 35 35 36 36 35 35 36 36 35 35 35 34 32 32 31 29 28 29 29
4 4 4 4 4 3 4 6 3 3 8 8 5 4 4 7 10 10 7 8 8 10 12 12 12 10 7 6 6 7 6 4 2 4 5 4 3 2 4 4 4 3 3 5 6 8 10 11 13 15 17 19 20 21 23 24 25 25 26 27 28 29 29 29 30 32 34 35 35 36 36 35 35 35 36 36 35 35 35 34 33 32 30 29 31 31
2 2 4 5 3 3 5 5 4 6 7 6 5 5 5 7 9 8 4 8 6 7 10 11 11 10 9 9 8 8 6 4 5 5 5 5 5 3 4 4 4 5 6 6 7 9 11 13 14 16 17 19 21 22 23 24 24 24 25 26 28 28 27 28 31 33 34 35 35 35 35 35 35 35 34 35 35 34 34 34 34 33 32 30 31 32
4 3 4 6 5 5 6 5 3 3 4 4 5 5 4 6 10 9 5 8 4 5 9 11 12 10 9 10 9 8 7 6 6 5 6 6 4 4 4 4 5 5 5 6 7 8 10 13 15 18 20 21 22 23 23 24 24 25 25 27 28 27 28 29 32 33 34 34 35 35 35 35 35 35 34 34 35 35 34 33 33 33 33 32 31 32
3 3 4 6 6 7 8 5 2 2 4 5 4 4 5 6 7 7 8 6 4 6 5 6 8 7 8 10 8 5 5 4 4 6 6 6 5 4 4 4 4 3 4 5 6 8 10 12 14 16 18 19 20 21 22 22 23 24 25 26 26 27 28 30 32 32 33 34 34 35 35 35 35 35 35 34 34 34 35 33 33 33 32 33 32 32
4 3 3 5 6 5 6 4 3 4 4 4 4 2 3 5 4 7 6 1 3 6 3 4 6 7 8 9 7 5 5 4 6 7 6 6 6 5 4 4 3 3 4 5 7 9 10 11 13 14 16 17 18 19 20 20 20 21 23 24 25 26 28 30 31 32 33 34 34 34 35 35 35 35 36 35 34 34 35 34 33 32 32 31 32 32
6 5 3 4 5 4 4 5 5 4 4 8 9 3 2 4 5 5 2 3 2 5 5 5 5 5 7 7 6 7 7 6 6 7 6 5 5 5 4 4 3 4 5 7 9 10 10 11 12 14 16 17 17 18 18 17 17 19 21 23 26 27 29 30 31 32 33 34 34 35 35 36 37 36 36 36 34 33 34 35 34 33 32 30 30 30
5 5 4 4 5 4 5 7 5 2 4 7 7 4 5 5 3 5 6 3 2 3 4 5 5 4 6 9 8 7 7 6 5 6 5 5 4 3 3 3 3 4 6 8 8 9 10 11 12 14 15 16 17 17 16 15 16 18 20 23 26 28 30 31 31 32 33 34 34 35 36 36 37 37 37 36 34 33 34 34 33 34 33 30 28 28
4 4 4 4 4 4 4 5 3 1 2 2 1 1 2 1 1 4 7 5 3 3 4 5 6 5 5 8 8 6 5 5 5 5 5 4 3 2 3 4 4 4 6 7 8 9 10 11 12 14 16 18 19 18 17 16 17 19 21 24 26 28 30 31 31 32 33 34 35 36 36 37 38 38 37 36 34 33 33 33 32 33 33 30 28 26
3 2 2 2 2 2 2 2 2 1 3 2 3 2 1 2 2 3 6 6 4 3 3 5 6 6 5 7 7 6 5 5 6 5 4 4 2 1 2 3 5 5 7 8 9 12 13 14 14 14 17 20 21 21 21 21 20 21 24 26 27 28 28 29 30 31 33 34 35 36 36 37 38 38 37 36 34 32 32 30 29 31 32 31 28 26
2 2 2 1 3 4 3 1 1 0 1 1 2 3 3 4 3 3 5 6 5 5 4 5 6 6 5 6 8 8 5 5 6 5 3 3 2 1 2 3 5 7 8 10 12 15 17 17 17 18 19 21 22 22 23 23 23 23 24 25 26 26 27 28 28 30 32 33 34 36 35 35 37 38 38 37 35 33 33 31 28 28 30 30 27 26
2 3 3 2 3 4 2 3 1 1 1 1 1 2 3 4 5 5 5 6 7 7 5 5 6 6 5 5 7 8 6 5 5 4 3 2 2 1 2 4 6 8 11 13 17 19 19 19 20 20 21 22 23 24 24 25 25 24 23 24 25 25 26 28 28 30 32 31 31 32 32 32 33 35 36 37 36 34 33 33 30 28 30 30 27 26
2 4 4 3 3 2 1 2 1 3 3 3 2 1 2 4 6 7 6 6 8 8 7 8 7 6 6 5 5 6 7 5 4 3 3 2 2 3 4 6 8 10 12 16 18 18 17 18 19 21 22 23 23 24 26 27 26 24 23 23 23 24 26 28 30 31 32 31 30 30 30 30 32 32 32 35 36 35 34 33 30 28 32 34 29 26
4 4 3 3 4 3 3 5 6 4 1 5 6 4 4 5 7 8 7 7 7 7 8 9 9 8 9 8 6 6 6 4 4 4 3 3 4 5 7 9 11 12 14 16 16 15 15 16 19 21 22 23 24 25 26 27 26 24 23 22 22 24 26 28 29 30 30 29 29 30 30 31 32 32 31 31 33 35 37 37 33 27 28 32 31 27
5 6 6 6 5 6 7 9 9 4 2 4 6 6 5 4 7 9 7 6 6 5 6 8 7 6 7 8 9 8 6 4 5 5 3 2 4 6 8 10 12 14 15 16 16 17 18 18 19 20 22 24 25 25 25 25 25 23 22 22 23 25 26 26 26 28 28 27 28 30 31 31 32 33 32 31 30 30 32 36 39 35 29 27 27 27
Wind_Direction
87 115 168 184 185 191 185 156 142 155 141 137 129 107 137 160 224 246 262 306 10 132 250 252 260 276 275 278 279 282 340 319 281 278 271 265 259 256 255 256 252 245 253 265 266 262 257 256 256 255 254 252 249 247 244 241 239 238 235 232 232 233 230 226 223 222 221 221 221 223 226 229 230 231 232 235 238 240 242 244 246 246 247 248 246 243
85 148 209 212 189 168 143 124 110 104 90 99 130 126 123 171 212 253 240 319 352 143 259 344 321 278 267 273 272 278 305 281 258 256 261 263 262 259 255 258 256 257 271 279 274 269 264 262 260 256 253 248 246 247 244 242 241 239 234 232 233 233 228 226 225 221 221 222 221 222 225 229 231 233 234 234 235 236 238 243 246 242 239 239 241 245
105 210 224 202 148 109 90 91 94 91 89 88 114 130 148 205 232 285 299 338 6 68 264 343 337 282 268 270 270 267 263 259 254 245 248 258 264 262 252 256 267 275 281 278 274 274 271 268 263 258 253 247 246 247 245 243 242 238 234 234 234 232 229 229 227 224 225 226 225 225 227 229 231 234 237 239 241 242 242 242 242 242 241 238 238 243
173 252 232 171 139 114 87 65 91 87 79 92 109 131 167 236 155 213 287 339 8 67 258 311 311 286 284 291 283 270 258 273 280 265 256 246 246 257 261 265 269 269 275 283 287 288 287 283 272 260 254 249 247 245 243 242 240 237 236 236 233 231 231 230 228 228 229 229 227 228 231 233 234 237 239 240 242 243 244 244 243 243 244 241 238 239
191 271 164 135 128 124 116 84 108 106 64 70 139 137 158 192 171 189 257 354 0 23 32 7 326 296 312 326 295 302 334 302 304 312 288 261 248 263 278 274 259 256 268 280 286 293 302 298 289 278 265 256 250 246 245 242 240 239 238 237 234 232 231 231 231 230 229 227 227 227 229 232 234 237 237 237 238 238 240 243 244 243 243 241 238 236
214 281 123 125 108 110 122 148 170 141 110 301 208 174 169 166 155 132 67 62 35 1 358 25 4 293 315 319 273 304 344 311 311 322 296 290 294 284 279 278 271 265 263 264 275 290 301 300 296 292 280 265 259 255 252 247 243 242 241 239 237 234 233 233 233 231 228 226 225 224 223 225 228 231 233 233 235 237 239 241 243 243 243 243 242 242
192 17 89 124 126 116 124 175 205 149 121 191 229 171 142 126 123 123 109 90 98 247 326 44 122 259 314 310 273 312 335 306 309 317 303 308 315 311 296 292 293 286 280 279 285 290 294 297 298 299 295 277 272 269 261 254 249 244 242 241 239 237 236 235 234 232 229 227 226 225 225 227 227 230 235 237 239 241 243 245 245 245 245 244 244 246
130 94 81 102 106 115 137 191 206 145 125 197 228 121 119 120 129 137 113 99 193 228 328 11 105 209 299 280 276 330 334 305 313 319 316 323 323 328 325 315 312 300 295 294 297 303 304 310 316 319 328 314 296 284 261 257 256 250 245 242 240 240 238 237 235 234 231 230 229 229 229 231 232 234 239 242 244 245 246 248 248 248 248 247 246 246
104 147 171 138 110 133 175 213 190 134 114 230 187 111 115 120 124 122 97 93 293 325 305 318 47 161 269 276 304 352 327 294 304 305 308 323 328 334 340 339 342 332 315 287 281 300 314 337 356 3 16 19 7 5 282 262 262 253 246 242 240 240 239 238 237 236 235 234 233 233 233 234 236 239 243 245 247 248 247 248 248 248 248 247 246 245
75 185 192 145 133 172 181 257 153 116 104 181 138 96 79 76 80 79 87 102 51 38 240 267 359 133 266 285 312 0 293 267 279 282 285 301 312 322 339 346 349 348 345 326 293 297 319 357 20 31 42 44 41 44 50 47 277 251 243 241 240 241 241 240 239 238 238 237 236 236 237 238 241 243 244 245 246 247 247 247 247 246 246 246 246 245
311 267 210 115 141 170 138 88 70 83 118 137 111 75 61 38 34 48 55 83 64 329 251 259 316 65 269 284 269 213 221 229 248 303 303 312 325 329 339 346 343 341 338 328 316 320 349 24 39 44 50 51 52 56 59 60 59 68 238 241 242 244 243 242 243 242 243 242 241 241 242 244 246 246 246 246 246 247 247 248 248 248 248 248 248 247
359 33 321 194 138 128 103 72 45 49 89 103 91 89 80 6 7 24 360 37 95 256 262 284 312 135 211 264 254 244 253 234 210 238 288 305 321 326 329 337 339 334 322 322 334 346 10 36 41 45 53 55 56 57 58 59 57 56 44 256 247 247 246 246 246 246 247 246 246 247 248 249 250 250 249 249 251 251 251 252 253 252 252 251 251 250
24 49 296 324 239 148 112 82 49 13 30 73 99 103 94 14 9 1 319 345 205 242 276 312 311 188 231 251 260 270 269 242 219 219 230 266 295 308 316 328 333 329 321 329 348 356 7 18 18 30 43 51 59 60 58 61 57 51 36 330 288 268 257 251 250 249 249 249 250 251 251 253 254 254 253 254 256 256 256 257 257 256 255 255 254 253
324 308 307 102 257 208 137 126 130 211 138 122 135 128 127 121 89 257 268 288 255 258 302 307 300 262 268 268 249 250 254 236 230 234 224 237 266 287 300 314 316 313 320 332 349 0 4 2 6 21 34 40 49 53 54 56 53 50 37 354 321 294 268 257 256 254 253 254 255 256 255 256 256 256 256 257 258 259 259 259 260 260 260 259 259 259
175 270 239 165 214 191 157 165 151 143 133 154 155 127 143 156 147 199 217 205 233 271 309 306 294 191 210 264 231 232 261 272 261 260 247 247 264 283 296 306 308 314 335 351 3 6 1 9 17 24 29 33 37 40 41 41 38 35 26 8 354 340 311 288 278 269 266 267 265 262 260 260 259 259 260 260 261 261 261 262 262 263 263 263 264 265
160 240 265 287 273 148 153 240 123 110 110 215 130 106 157 184 137 138 180 171 171 299 302 281 248 210 214 278 272 270 297 298 288 281 274 280 296 322 331 326 336 347 357 3 14 10 0 17 28 28 29 30 30 33 33 31 30 27 21 11 2 354 343 327 310 296 290 285 279 273 269 267 264 263 262 261 262 262 263 264 264 265 266 266 267 268
158 254 312 341 353 76 147 233 81 111 168 154 129 166 209 168 114 113 182 59 78 178 266 242 249 288 319 290 303 355 319 303 319 322 323 296 309 3 35 28 24 16 8 358 356 351 352 15 27 29 30 27 25 25 23 22 21 18 14 8 1 355 347 339 326 315 307 298 291 286 280 275 270 267 265 265 266 267 267 267 266 267 268 268 268 269
155 145 328 30 74 1 273 124 61 35 116 121 175 203 186 118 95 106 147 12 40 232 276 291 233 287 334 261 321 4 295 266 283 299 317 317 7 57 71 49 23 351 348 347 346 347 358 19 25 28 28 25 20 14 8 7 5 4 2 356 353 349 343 338 331 324 318 309 304 299 293 286 279 275 273 273 273 272 269 268 267 268 269 269 270 271
131 128 317 22 125 305 345 95 87 9 46 116 178 171 114 131 142 88 135 152 121 225 282 306 268 262 202 222 300 305 222 224 235 268 307 103 112 100 132 121 76 21 16 16 14 6 9 22 24 23 21 17 14 7 357 351 347 350 349 344 342 339 336 335 332 329 326 319 313 307 301 295 288 282 279 277 277 274 270 270 270 271 272 272 272 272
119 129 247 316 270 301 11 107 183 219 19 42 93 105 79 126 159 156 145 162 178 193 258 308 323 266 227 217 223 229 223 199 196 220 223 173 167 177 166 148 138 96 62 36 23 9 0 11 18 19 17 15 14 9 1 349 342 342 341 338 335 331 333 336 335 333 330 325 319 312 307 303 297 291 285 283 280 276 274 274 274 274 275 275 274 272
106 132 191 308 334 212 182 218 191 171 142 88 106 153 166 69 112 156 90 118 141 159 187 261 301 269 249 208 197 221 224 202 186 174 180 183 176 184 180 167 169 129 65 23 3 338 332 354 7 13 15 16 18 17 16 7 355 347 342 339 335 331 333 337 336 334 330 326 322 316 312 308 303 298 291 287 284 281 280 279 277 277 277 276 275 273
142 145 161 139 321 202 222 259 202 174 167 157 165 180 176 145 121 149 253 230 124 144 170 171 259 271 259 205 209 232 226 225 214 164 163 179 172 173 186 196 195 154 17 337 314 294 321 353 2 6 9 14 16 17 20 17 8 0 355 352 346 338 339 340 337 334 330 327 324 320 318 315 310 305 299 293 289 286 286 285 283 282 280 278 277 276
130 108 120 147 216 214 240 284 222 200 145 137 183 189 166 159 138 153 210 222 131 133 148 121 254 272 263 215 224 250 245 242 233 170 152 164 167 164 186 251 285 299 278 281 284 298 330 347 354 0 6 10 12 13 16 17 15 12 7 4 358 352 350 347 343 340 335 331 330 329 327 325 321 316 310 305 301 297 295 293 290 288 284 283 282 280
120 110 121 175 300 309 329 354 22 27 78 130 235 187 160 182 151 148 184 172 146 174 143 91 273 269 274 262 246 257 259 264 252 204 159 152 156 151 310 322 338 322 290 293 309 321 329 336 350 2 4 5 8 11 15 18 18 17 15 12 7 2 0 359 354 350 345 342 341 340 336 334 331 326 321 318 313 309 306 302 298 294 290 288 287 284
192 160 135 119 27 352 344 350 338 309 207 199 225 185 163 135 99 100 120 101 144 207 159 147 236 254 273 303 326 339 20 249 250 244 195 156 159 197 323 332 329 310 301 316 333 331 326 331 349 4 4 6 10 14 17 19 18 16 15 14 10 6 6 5 1 356 353 351 349 348 347 345 342 337 332 328 323 319 315 309 305 301 298 294 292 289
183 177 151 153 173 195 204 211 223 210 180 201 203 163 162 135 135 156 120 107 228 223 159 172 227 250 279 314 340 347 113 155 197 243 246 194 199 228 253 313 309 303 303 307 311 306 295 315 18 21 15 17 18 17 18 18 16 13 13 15 14 10 8 5 1 359 356 354 352 352 354 352 349 344 339 335 330 326 322 317 312 308 304 301 297 294
135 183 189 186 201 204 193 196 179 129 139 196 182 157 170 171 169 157 115 170 207 159 179 220 200 190 248 273 273 246 212 184 185 210 237 239 243 241 179 227 269 276 270 264 259 254 256 54 48 32 21 20 18 16 17 16 14 12 12 14 15 13 11 7 3 1 359 357 356 355 355 353 350 345 341 337 334 331 328 324 320 314 311 306 300 296
104 211 210 198 221 217 164 178 182 138 162 190 172 166 182 183 173 165 191 212 165 115 237 231 156 177 228 235 230 226 218 216 210 212 229 244 254 302 198 252 259 254 253 270 26 24 21 17 15 12 10 12 13 13 14 14 12 12 11 10 11 11 11 9 6 5 3 1 0 358 356 353 350 345 341 338 335 333 331 329 324 320 315 309 303 299
132 212 209 185 226 231 144 174 194 163 175 181 172 182 184 178 179 188 213 217 158 177 239 197 149 203 224 209 221 219 203 208 208 214 231 241 295 256 227 230 301 21 11 26 26 19 19 9 359 2 4 7 11 10 10 9 8 9 9 8 8 8 8 8 7 7 6 4 2 359 355 352 349 345 342 339 337 335 333 330 327 323 317 312 308 304
155 216 189 167 216 236 197 186 188 172 174 174 183 191 183 182 192 197 215 220 194 215 241 169 164 224 222 193 220 223 196 203 205 235 255 236 242 261 277 23 42 39 26 26 19 6 11 4 359 3 4 6 8 6 5 4 3 3 3 3 5 6 6 6 5 6 6 6 3 359 354 351 348 344 342 339 338 336 333 330 326 322 318 315 311 308
198 218 166 140 196 250 212 168 189 186 186 195 199 197 188 192 204 209 219 221 204 228 249 208 203 251 234 183 215 212 157 217 247 261 264 252 258 336 23 20 29 44 32 23 13 2 5 2 2 5 3 2 2 2 2 0 359 0 1 1 2 3 4 4 4 5 5 4 2 358 355 352 349 347 344 341 338 336 334 331 328 323 320 317 314 311
178 202 63 108 171 258 234 159 170 142 143 232 228 203 196 197 207 216 218 209 192 217 237 233 239 256 224 168 188 172 163 232 254 260 274 311 337 23 54 47 51 55 39 21 12 7 6 1 360 358 356 357 359 1 2 360 359 359 359 360 1 2 3 3 3 3 2 1 359 357 355 353 350 349 348 345 342 338 336 333 330 327 323 319 317 313
153 148 116 141 175 271 300 144 134 100 101 254 243 210 200 202 208 213 222 223 211 206 211 221 234 242 180 158 177 189 201 224 236 238 240 255 13 94 126 122 100 80 38 21 9 5 358 349 351 351 353 358 359 0 2 1 358 357 356 359 0 1 2 2 3 2 0 359 357 355 353 351 349 347 347 346 343 339 337 334 331 330 327 323 320 315
126 128 150 171 158 249 272 122 112 131 200 234 237 197 192 199 201 199 211 222 216 207 212 232 245 201 145 163 179 188 203 217 211 199 197 176 136 122 130 129 119 94 35 17 359 354 349 347 354 356 358 1 360 0 3 1 357 355 356 359 0 1 1 0 1 360 357 356 356 353 351 350 347 346 345 344 342 338 336 334 331 330 328 325 321 316
127 127 147 147 125 156 181 116 136 209 222 244 292 199 191 197 194 197 219 230 215 209 224 246 258 218 171 185 188 176 176 156 126 129 132 140 138 130 128 121 108 85 46 17 354 350 352 354 356 355 357 0 0 2 3 0 357 356 357 359 359 359 359 358 357 356 354 352 352 351 350 348 346 344 343 341 339 336 335 333 330 329 328 324 319 315
141 138 129 131 143 134 137 174 205 234 261 305 301 268 169 154 158 188 240 257 227 205 210 230 244 231 179 185 189 141 139 122 97 96 140 157 146 129 125 127 129 127 91 31 357 348 354 357 355 353 354 357 1 4 3 0 358 357 358 359 358 357 357 356 355 353 350 348 348 347 347 346 344 342 341 339 337 334 333 332 329 328 326 322 317 313
147 149 131 176 205 177 177 210 230 318 319 258 246 241 160 146 155 171 223 249 226 203 197 214 235 231 176 160 144 122 125 107 80 15 256 232 193 147 137 140 143 141 89 41 21 7 5 3 360 358 358 360 4 5 0 358 357 356 356 357 355 354 354 353 351 349 346 345 344 343 343 343 341 340 339 338 335 333 331 329 327 327 325 320 315 312
158 178 177 197 213 181 195 222 219 242 249 236 218 213 187 174 169 164 196 243 229 200 195 205 224 219 171 145 145 142 133 116 146 224 240 236 223 169 125 123 124 103 55 33 22 15 13 7 3 2 1 1 3 2 357 355 354 352 352 353 351 350 351 350 347 344 342 341 340 340 340 339 338 338 336 335 333 331 329 327 326 325 324 319 314 311
158 181 178 198 214 177 195 222 207 211 241 242 215 212 194 167 144 133 191 249 240 192 185 196 218 213 173 157 163 155 146 178 216 218 204 206 215 182 127 109 91 75 54 36 23 12 7 3 0 1 2 1 359 358 355 351 349 349 348 348 346 347 348 346 342 340 337 336 336 336 337 336 336 335 334 332 331 329 327 325 324 323 322 318 313 310
173 169 184 204 210 195 199 220 224 221 253 256 230 227 201 150 123 122 205 250 237 184 178 187 207 209 172 159 162 159 174 207 212 191 177 178 179 161 137 105 83 72 53 41 29 11 2 359 357 357 358 357 354 353 351 348 346 346 345 344 342 343 344 339 336 335 333 332 333 333 334 334 333 332 332 330 329 327 324 322 322 322 321 319 315 311
175 171 195 206 209 209 211 225 258 251 250 243 221 205 178 141 125 164 216 237 207 192 187 172 180 175 152 154 159 169 198 200 145 140 151 139 128 144 146 117 102 79 49 38 22 7 358 356 354 351 350 349 348 348 348 345 342 341 340 338 336 337 336 333 332 332 331 330 331 331 331 331 331 330 329 328 328 325 322 321 320 319 319 318 315 312
170 174 198 203 207 215 218 229 258 262 242 185 142 167 175 151 175 210 214 215 174 177 154 121 143 147 146 153 154 151 158 142 116 121 132 132 132 141 135 107 81 49 33 16 8 6 355 346 345 341 341 345 346 344 344 341 336 335 333 329 328 330 330 328 329 330 329 328 329 328 328 328 328 327 326 326 327 325 321 320 319 317 316 315 313 310
172 175 191 193 194 199 210 215 223 245 215 141 122 121 204 184 203 202 146 44 76 142 134 131 145 150 143 137 134 134 131 124 113 111 115 122 122 120 111 85 44 12 5 357 357 359 350 339 334 330 332 338 339 340 342 337 331 329 325 322 325 329 327 327 329 329 327 327 327 327 327 327 326 326 325 325 327 325 321 319 318 316 315 313 311 309
189 186 191 195 194 186 197 212 216 217 189 156 140 166 202 200 198 165 136 90 82 136 141 127 133 159 148 130 128 130 117 109 111 108 103 99 89 84 76 52 20 358 356 350 345 346 342 332 325 322 326 332 336 339 341 337 329 324 319 321 326 328 327 328 330 328 326 327 326 325 326 325 324 324 324 325 326 324 320 320 319 316 314 311 309 305
222 200 174 179 195 186 183 208 235 270 215 185 108 133 181 178 26 136 130 113 123 168 167 140 142 161 142 123 121 116 110 120 127 115 108 109 90 50 29 12 1 359 353 340 335 338 336 328 324 325 328 333 339 341 340 338 332 322 319 323 327 327 328 329 329 327 326 325 324 323 324 323 322 323 323 324 324 322 319 319 317 313 311 309 305 301
255 203 137 144 204 232 210 170 147 1 341 4 24 23 82 75 50 112 116 111 123 146 142 139 145 149 142 132 120 109 119 135 128 113 115 123 109 36 15 352 348 354 347 341 341 339 336 335 335 334 334 336 340 340 337 337 334 325 323 325 327 329 330 329 328 327 325 324 322 322 323 322 321 321 322 322 322 320 317 315 312 309 307 304 300 297
277 179 139 154 200 207 228 239 125 107 316 33 70 58 60 56 39 71 113 122 122 117 110 115 122 123 124 123 118 120 134 133 124 128 133 124 123 95 18 354 346 345 343 343 343 341 342 345 343 340 337 334 335 336 333 332 330 326 324 326 328 331 331 329 327 324 322 321 320 319 321 321 320 320 320 319 319 318 316 313 309 305 301 298 296 294
234 163 158 202 198 180 217 293 310 88 19 8 83 104 107 97 71 66 91 110 108 103 95 90 100 109 105 105 116 124 124 113 111 124 125 112 115 98 32 4 350 344 341 342 344 347 349 346 340 336 333 329 330 331 329 327 327 327 326 328 331 334 332 328 326 321 318 318 318 317 318 319 317 317 317 316 316 315 312 310 308 302 297 294 291 288
148 159 177 176 155 119 343 274 165 84 32 317 280 134 129 133 113 95 93 100 102 103 93 76 69 80 91 96 106 110 107 101 91 88 85 68 44 26 8 357 349 344 342 344 346 348 346 339 333 329 325 324 326 327 326 326 328 329 331 333 336 337 332 327 324 321 318 318 318 317 318 317 315 314 313 312 312 312 309 307 304 300 297 297 294 287
143 172 178 123 133 179 219 202 175 135 147 233 216 179 163 155 128 113 105 99 97 104 109 97 79 69 71 70 73 92 103 95 68 58 49 33 23 7 355 350 345 342 344 345 344 342 337 332 327 324 321 322 324 325 326 328 329 332 336 338 337 333 329 326 323 319 317 318 318 317 317 316 314 312 311 310 309 310 310 308 306 299 294 296 297 293
178 181 174 154 176 217 216 193 180 156 145 186 171 157 172 166 128 117 115 112 104 98 111 115 109 95 78 64 64 79 91 76 54 46 38 27 9 357 355 353 346 341 342 342 338 334 330 328 326 323 321 321 324 325 326 327 329 335 338 334 330 327 326 326 323 317 316 317 316 315 315 314 312 311 310 308 307 307 308 308 309 306 299 293 295 295
Height
799 803 809 809 810 810 811 814 815 818 819 820 826 827 828 827 826 832 833 837 838 831 830 834 832 827 821 815 811 810 816 816 811 809 806 805 805 805 805 804 804 804 799 798 799 800 800 801 802 803 804 805 807 808 809 810 811 812 814 815 816 818 821 824 826 828 830 831 832 834 835 835 837 838 840 841 842 844 846 847 848 848 849 850 851 853
802 806 808 807 809 811 816 821 818 820 823 823 826 826 831 832 827 832 835 835 839 831 831 840 834 825 819 814 810 810 812 809 805 804 802 801 802 803 803 802 801 800 798 798 798 798 799 800 800 801 802 802 803 803 804 805 806 808 810 812 813 815 818 819 821 824 825 826 828 829 830 831 834 835 837 838 839 841 843 844 846 846 846 846 847 849
807 807 806 810 816 817 822 824 816 818 823 825 830 827 828 834 832 834 835 835 838 831 829 838 832 820 816 813 809 810 810 805 805 806 803 803 801 801 801 799 800 799 797 796 796 797 797 798 799 799 799 799 800 800 802 803 804 806 808 809 810 812 814 815 818 820 820 822 824 826 828 829 832 833 834 836 838 840 841 841 843 844 844 845 845 846
811 807 808 815 816 813 819 822 815 818 824 827 829 825 828 837 834 829 831 835 839 837 835 835 829 819 814 811 805 808 813 809 808 809 807 807 803 799 800 800 800 798 795 795 795 795 796 796 797 797 797 797 798 798 799 801 802 804 804 805 807 809 810 813 815 816 818 820 823 825 827 829 830 831 833 834 835 837 838 839 840 841 842 843 843 843
806 811 817 818 814 810 815 820 815 815 823 830 829 823 825 832 832 832 833 835 837 841 840 832 824 816 811 809 802 805 814 809 806 807 801 802 804 803 801 800 800 799 797 797 794 794 795 794 794 794 795 795 796 797 797 799 800 801 802 804 806 808 809 811 813 815 818 820 822 825 827 828 829 830 831 832 832 833 834 835 836 837 839 840 841 841
805 816 819 814 813 812 812 817 816 814 820 828 825 821 821 821 826 834 835 833 833 835 841 839 828 817 811 807 801 804 808 800 801 803 794 794 799 801 800 797 798 799 798 798 796 795 795 793 793 792 793 794 794 795 796 797 799 800 802 803 805 807 808 810 812 814 817 819 821 823 824 825 826 826 826 827 827 829 830 830 832 834 836 837 838 839
810 819 817 810 812 813 813 815 817 818 821 824 825 826 827 823 824 830 830 832 834 835 846 850 836 826 817 803 800 810 809 798 796 796 792 794 795 797 798 797 798 798 797 797 796 796 796 793 793 791 791 793 792 793 795 796 797 798 800 802 803 805 807 809 811 813 815 817 819 820 821 822 822 822 822 823 824 825 826 827 829 831 832 834 835 836
812 817 816 812 812 814 814 814 817 819 818 822 830 832 828 823 824 829 828 831 837 839 846 847 838 835 828 810 809 817 808 795 792 792 793 795 795 796 799 798 798 798 797 797 796 795 795 794 793 792 791 792 791 792 793 794 796 797 799 800 802 804 806 808 810 812 813 815 816 817 818 819 819 819 819 820 822 823 824 825 826 827 828 830 832 833
812 811 811 811 811 814 814 816 820 817 814 826 839 838 832 830 830 832 831 833 844 843 838 841 841 839 830 814 816 821 808 796 794 794 796 796 797 798 798 798 798 798 798 797 796 795 795 794 793 792 791 791 792 792 793 794 795 796 798 800 802 803 805 807 808 810 812 813 814 815 816 816 816 817 818 819 820 821 822 822 823 824 826 826 828 829
813 813 812 808 806 811 819 827 828 816 814 833 844 839 837 840 839 838 836 834 843 843 836 842 847 840 827 810 811 817 808 800 798 798 799 798 799 800 799 798 797 798 798 798 798 796 794 794 793 792 793 792 793 793 793 794 795 796 798 800 801 803 805 806 808 809 810 812 812 813 813 813 814 815 816 817 817 819 820 820 821 822 823 823 824 825
815 816 816 813 810 815 824 831 833 825 825 834 835 829 831 836 837 840 843 840 842 843 842 854 857 846 832 813 805 809 807 804 801 798 799 797 797 798 798 800 799 799 799 798 798 797 795 795 794 794 794 794 794 794 795 795 796 797 798 800 801 803 804 805 807 808 809 810 810 811 811 811 812 813 814 815 815 817 818 818 818 819 820 820 821 822
814 813 815 817 819 821 820 824 833 834 834 831 823 824 830 836 839 841 844 843 843 843 848 864 865 852 840 816 802 805 805 807 805 799 798 797 796 797 797 799 800 800 801 799 798 797 796 796 795 796 795 795 796 795 796 797 797 798 798 800 801 801 803 804 805 806 807 808 809 809 809 809 810 811 812 813 813 814 815 815 816 816 817 818 818 820
812 811 815 818 821 819 811 818 832 833 830 827 823 827 834 845 850 846 849 853 849 847 855 866 862 850 839 815 802 802 798 801 806 802 800 799 798 797 797 799 800 801 800 798 798 797 797 797 796 796 796 797 797 797 798 798 798 799 799 800 801 801 802 803 803 804 805 806 806 806 807 807 808 810 810 811 811 812 812 812 813 813 814 815 815 816
812 814 815 814 816 815 807 813 826 828 827 825 823 826 832 846 854 852 861 866 854 850 860 868 858 843 832 813 802 800 796 801 805 805 805 805 803 801 800 802 802 801 800 799 798 797 797 797 796 796 797 797 798 798 798 799 799 800 800 801 801 802 802 803 803 803 803 803 804 804 805 805 807 807 808 808 808 808 809 809 810 810 811 811 812 812
813 814 811 810 812 812 809 810 814 817 823 827 828 827 827 832 837 842 849 846 842 850 862 864 849 829 817 806 801 800 801 807 807 808 811 808 808 807 804 804 802 800 799 798 798 798 797 798 797 797 797 797 798 798 798 799 799 800 800 800 801 801 802 802 802 802 802 802 803 803 803 804 804 805 805 805 805 805 806 807 807 807 808 808 808 809
811 810 810 815 816 811 810 813 812 811 820 833 836 829 825 822 825 845 862 855 851 854 855 854 841 824 812 801 801 805 803 804 804 805 806 803 805 807 802 801 800 798 799 798 798 799 799 798 798 798 798 798 799 799 799 800 800 800 800 800 800 801 801 801 801 801 801 801 801 801 802 802 802 802 802 801 802 802 803 804 804 804 805 805 806 806
810 811 814 817 817 816 815 815 815 812 816 829 832 826 829 831 826 843 868 875 868 851 842 846 835 821 816 801 794 800 798 796 798 798 799 799 802 803 799 798 799 798 799 800 800 801 801 800 799 799 800 800 800 800 801 801 801 801 801 801 801 801 801 801 800 800 800 800 800 800 800 800 800 800 799 799 800 801 801 801 801 801 802 802 803 804
802 810 817 816 813 818 823 818 817 818 818 822 824 822 829 836 830 830 844 860 867 852 841 846 837 824 822 808 792 795 795 792 793 794 797 799 799 799 798 798 799 800 801 802 802 803 803 801 801 801 802 802 802 802 802 802 802 802 802 801 801 800 800 800 800 800 800 800 799 799 798 798 798 798 798 798 798 799 798 798 798 798 799 799 800 800
794 803 817 823 818 818 822 816 815 823 823 819 819 821 823 826 829 833 837 842 851 851 841 844 850 840 827 811 793 790 793 792 793 795 795 796 798 799 799 799 800 801 802 802 803 804 803 802 802 803 803 803 803 803 803 803 803 802 802 802 801 800 800 800 800 800 799 799 798 798 797 796 796 796 796 796 796 796 795 795 795 795 795 796 797 797
793 797 811 824 823 818 817 814 813 819 825 823 822 824 823 823 826 831 836 835 835 845 844 839 842 831 816 810 795 786 793 794 793 795 794 796 798 799 799 799 800 801 801 802 803 804 803 802 803 804 804 804 804 804 803 803 802 802 802 801 800 800 799 799 799 799 798 798 797 796 796 795 794 793 793 793 793 793 792 792 792 792 793 793 794 794
793 794 804 821 825 820 815 814 812 812 819 822 821 824 825 829 833 830 836 840 832 835 843 838 831 814 803 807 798 788 794 794 790 792 795 798 798 798 799 798 799 801 801 803 804 804 804 802 803 804 804 805 805 804 804 803 802 802 801 801 800 799 799 798 797 797 796 796 795 794 794 793 793 792 791 791 791 790 790 790 790 790 791 791 790 791
791 795 805 820 823 816 812 816 819 813 812 813 813 817 818 821 829 827 832 843 839 834 838 838 832 812 799 805 801 793 795 796 795 796 796 798 798 797 799 799 800 802 802 804 805 804 804 802 803 804 804 804 804 804 804 803 803 802 801 801 800 799 799 797 796 795 795 794 793 792 791 790 790 790 790 790 789 789 789 788 789 789 789 788 788 789
790 796 805 815 817 814 816 824 830 822 815 813 812 813 814 814 816 814 820 834 840 842 844 844 836 812 798 807 807 800 801 801 801 800 796 797 798 797 798 800 802 804 804 805 805 804 803 802 803 804 803 804 804 804 804 803 803 802 801 800 800 799 798 797 796 795 794 793 792 790 789 788 788 788 788 788 787 787 787 786 787 787 787 786 786 787
789 791 799 811 815 814 816 822 828 824 817 815 814 814 815 813 811 811 817 825 829 834 838 842 837 812 797 806 809 806 806 804 804 804 798 797 798 797 799 800 802 804 804 804 804 804 804 803 805 805 805 805 805 804 804 804 803 803 801 801 800 800 798 797 796 795 794 792 791 790 789 788 787 787 786 786 785 785 785 784 784 784 784 784 783 783
782 786 795 810 817 817 818 819 819 818 817 813 811 815 814 813 817 821 825 827 824 824 825 826 825 809 797 803 805 803 803 800 803 806 801 798 798 797 799 802 803 803 802 803 804 805 806 806 807 808 808 808 807 806 805 804 804 803 802 802 801 800 798 796 795 794 793 792 790 789 788 787 787 786 785 784 784 783 783 782 782 781 781 781 780 780
778 784 788 798 808 810 810 808 802 804 813 814 811 815 814 814 816 814 818 823 820 823 825 815 810 807 801 799 799 799 800 799 801 804 802 800 800 801 803 804 802 802 802 804 806 807 808 809 809 809 809 809 808 807 807 806 805 804 803 802 801 799 797 796 795 794 792 791 790 788 787 786 786 785 784 783 782 781 781 780 779 779 778 778 777 777
779 784 782 782 786 787 786 788 789 792 803 809 809 812 813 813 811 809 816 818 813 822 826 810 802 805 802 799 798 797 798 798 799 799 799 798 799 802 805 803 802 805 807 808 809 809 808 808 808 809 809 809 809 808 807 805 804 803 801 800 800 798 797 796 795 793 792 791 789 788 787 786 785 784 782 781 780 779 778 778 777 776 776 776 774 773
777 781 782 779 778 780 780 783 788 789 791 798 804 807 810 811 811 811 811 805 805 817 817 805 804 805 801 799 797 794 797 799 798 797 796 796 797 801 804 803 804 807 809 808 806 805 805 806 806 807 807 806 806 804 803 802 801 801 800 799 798 797 796 795 794 793 791 790 789 788 786 785 784 783 782 780 779 778 777 776 775 774 774 773 772 771
774 777 781 782 781 784 785 787 790 788 786 792 799 801 806 811 810 809 804 798 802 806 799 797 804 800 796 797 792 790 794 794 793 795 795 797 800 802 803 802 803 805 804 803 804 806 808 808 807 807 805 804 803 802 801 800 799 799 798 798 797 796 795 794 793 792 791 789 788 787 786 784 783 782 781 780 778 777 776 774 773 772 771 770 769 769
774 774 780 783 781 783 787 791 792 789 786 792 798 799 802 807 805 802 798 794 798 797 791 798 802 792 790 792 788 790 795 794 796 798 797 799 801 799 797 796 799 803 804 805 808 810 810 810 809 808 807 805 805 804 802 801 800 799 798 797 796 795 794 793 792 791 790 789 788 787 785 784 783 782 780 779 777 776 774 773 772 770 769 768 767 767
774 777 781 783 782 784 789 792 794 794 789 788 795 801 804 806 805 802 796 794 801 801 796 803 806 796 792 791 788 793 797 796 796 795 793 796 796 794 793 795 799 804 807 809 811 811 812 811 810 809 808 807 807 805 804 803 801 800 798 797 796 795 794 792 791 790 789 789 788 786 785 784 782 781 780 778 776 775 773 772 770 769 767 766 765 764
775 780 783 784 783 784 790 795 798 801 798 794 795 799 801 803 801 799 796 794 798 798 798 806 806 794 789 790 791 795 796 792 790 789 789 793 794 794 795 798 802 806 808 811 812 812 812 812 811 810 810 809 807 806 805 803 801 799 798 797 795 794 793 792 791 790 789 788 786 785 783 782 780 779 778 776 775 773 771 770 768 766 765 764 763 762
776 777 781 784 782 785 799 802 797 799 803 799 790 785 789 794 793 794 796 794 793 792 795 798 791 781 784 789 791 793 794 789 788 790 792 793 796 799 800 802 806 808 809 811 811 812 812 812 812 811 810 809 808 807 806 804 802 800 799 797 795 794 792 791 790 789 788 786 785 783 781 780 778 776 775 774 772 770 769 767 765 764 762 761 760 759
779 774 779 783 779 790 807 803 795 801 800 785 773 771 776 783 786 789 789 786 786 787 785 783 780 779 785 787 786 787 789 789 790 793 796 796 797 801 804 806 808 808 810 811 811 811 811 811 811 810 809 809 808 807 806 805 803 801 799 798 796 794 792 791 789 788 787 785 784 782 780 778 776 774 773 771 770 768 767 765 764 762 760 758 757 756
778 775 781 783 780 794 808 801 796 798 786 771 769 770 770 773 778 782 780 778 783 786 784 781 780 780 783 784 783 784 788 794 797 797 800 801 800 801 804 806 808 809 810 810 810 810 810 809 809 809 808 808 807 806 805 803 802 800 798 797 796 794 792 791 789 788 786 785 783 781 779 777 775 773 772 770 768 767 765 764 762 761 759 757 755 753
775 777 782 784 784 794 805 799 789 781 772 770 773 772 771 775 780 784 783 779 780 783 784 782 778 778 782 784 786 790 794 798 801 801 802 803 802 803 804 806 808 809 809 810 810 810 809 809 808 808 807 806 806 805 803 802 800 798 797 796 794 793 792 790 789 787 785 784 782 780 779 776 774 772 770 768 767 765 763 762 760 759 758 755 753 752
775 778 781 784 782 784 791 789 779 774 772 769 766 765 768 770 773 777 778 773 770 774 779 778 775 777 782 785 791 798 799 798 799 802 803 804 804 805 805 806 808 808 808 809 809 809 809 809 808 807 806 805 804 803 802 801 799 797 796 795 793 792 791 790 788 787 785 783 782 779 778 776 773 771 769 767 765 763 761 760 758 757 756 754 751 749
777 777 778 782 780 779 782 784 782 782 774 762 758 759 760 761 763 768 771 767 761 764 771 773 772 775 781 787 795 800 797 793 795 799 801 803 805 805 805 806 807 807 808 808 808 808 808 808 807 807 806 804 803 803 801 800 799 797 796 794 793 792 790 789 788 786 784 783 781 779 777 775 773 771 768 766 764 762 760 758 757 756 755 753 750 747
781 780 780 783 783 782 782 781 779 776 765 755 754 756 759 762 762 767 776 772 758 759 768 770 770 773 776 783 793 796 792 788 789 795 800 802 804 805 805 806 806 806 807 807 807 807 807 806 806 805 805 804 803 802 801 799 798 797 795 794 793 791 790 789 787 786 784 782 780 779 777 775 773 770 768 765 763 761 759 757 755 754 753 751 749 746
784 785 785 785 782 780 780 777 772 768 760 754 755 759 764 764 761 770 783 773 757 759 766 764 765 770 774 782 790 791 785 782 784 793 799 801 803 805 805 805 806 806 807 807 807 807 806 806 805 804 803 803 801 801 800 798 797 796 795 794 792 791 790 789 787 785 783 781 779 777 775 773 771 769 767 764 762 759 758 756 754 752 750 748 747 744
782 784 783 780 777 777 777 775 771 766 759 755 758 764 767 765 765 771 772 762 756 762 768 765 766 770 775 782 787 785 784 785 788 793 799 801 803 805 805 806 807 807 807 808 807 807 807 806 805 804 804 803 802 801 800 798 797 796 795 794 793 791 790 789 787 784 782 779 777 775 773 772 770 767 765 763 761 758 755 754 752 750 748 746 744 742
775 778 778 775 774 774 773 773 773 765 755 755 763 769 768 765 764 764 762 763 764 766 771 772 771 773 778 781 782 783 788 792 793 795 799 802 802 804 805 806 806 806 807 807 807 807 807 806 806 805 804 804 803 802 800 799 798 797 796 794 793 791 790 788 785 783 780 778 776 773 771 770 768 765 763 761 759 756 753 751 750 748 746 744 741 739
762 767 772 771 768 770 772 775 773 761 752 753 761 767 765 760 756 756 761 770 772 771 773 775 774 776 779 780 782 786 789 792 794 796 799 801 802 804 805 805 806 806 806 806 807 807 807 806 806 805 804 803 803 802 801 800 798 797 796 794 792 790 788 786 784 781 778 776 773 771 769 767 765 763 761 758 757 754 751 748 747 745 743 742 739 737
754 757 761 760 758 762 766 764 757 749 749 752 751 752 754 755 755 756 757 764 772 775 775 774 775 778 778 778 783 787 788 791 794 796 798 800 802 803 804 805 806 806 806 807 807 806 807 806 805 804 803 802 802 801 800 799 798 797 795 793 791 789 786 784 782 779 776 774 771 769 767 764 762 760 758 756 754 752 749 746 744 742 740 739 738 735
748 749 750 748 747 751 752 750 749 749 755 757 754 752 755 758 761 761 756 759 769 773 772 772 775 779 780 780 784 787 789 793 795 796 799 801 801 803 804 805 806 806 807 807 806 806 806 805 803 802 801 800 800 799 799 798 797 795 793 791 790 787 784 782 779 776 774 771 769 766 764 762 759 757 756 754 752 750 747 744 742 740 738 737 736 734
750 751 748 744 745 748 749 752 756 757 758 759 761 762 762 762 763 762 759 761 767 771 773 773 774 778 782 782 784 788 792 794 796 798 800 801 803 804 804 804 805 806 806 806 805 805 804 802 801 800 798 798 797 797 796 796 795 793 791 789 787 785 783 780 777 774 772 769 766 764 762 759 756 754 752 751 749 747 745 743 741 738 735 734 733 732
751 753 749 745 745 746 748 754 760 761 761 762 763 764 764 764 765 764 762 765 769 773 775 775 776 779 783 782 783 789 793 794 797 799 801 802 804 805 804 805 805 805 805 805 804 803 801 799 798 797 796 796 796 795 794 793 792 791 789 787 786 784 781 779 776 773 770 768 765 762 760 758 754 751 749 747 745 744 742 740 739 737 733 731 730 729
746 748 750 748 747 748 753 761 766 766 766 767 765 763 764 765 767 769 769 770 773 775 777 778 779 781 783 784 786 789 793 796 798 799 801 803 804 804 805 805 805 804 804 803 801 800 799 797 796 796 796 795 794 793 792 791 790 789 787 785 784 782 779 777 774 771 768 766 764 761 759 757 753 750 747 744 742 741 738 736 735 733 730 728 727 726
745 747 749 747 749 755 760 765 766 765 765 767 766 765 767 768 769 772 773 773 774 776 778 781 782 783 784 787 788 789 792 796 798 798 800 801 802 803 804 803 804 803 802 800 800 799 798 797 797 796 795 793 792 791 790 788 787 786 785 783 782 780 777 774 771 768 765 763 761 758 756 754 751 749 746 742 739 737 735 733 732 730 725 723 723 723
745 744 747 750 752 752 751 753 756 753 754 760 763 764 769 771 770 771 773 774 776 777 778 780 784 786 788 789 789 790 792 795 798 799 799 800 801 802 803 802 802 801 800 799 799 798 798 798 797 795 794 792 791 790 788 786 784 783 782 782 780 778 776 773 769 766 763 761 759 756 754 751 748 746 744 741 737 734 730 727 726 726 723 719 717 718
739 737 740 745 746 742 740 744 748 745 745 754 761 765 769 771 769 769 772 775 777 779 779 780 783 786 790 792 792 792 793 796 798 799 800 801 802 802 802 801 800 799 799 799 798 798 797 797 795 794 792 790 789 788 786 784 783 782 781 780 779 777 775 773 769 765 761 760 757 754 752 749 746 743 741 738 736 733 729 724 719 718 718 716 714 712